星链-3625 (STARLINK-3625 )

导读

STARLINK-3625是美国太空探索技术公司(SpaceX)星链(Starlink)星座中的互联网卫星,于北京时间2022年2月25日由猎鹰9号火箭发射,属于星链Group 4-16组网任务。卫星总质量约297千克,运行在约548公里高度的近地轨道,飞行速度约7.59km/s,旨在为全球尤其是基础设施匮乏地区提供低延迟高速宽带互联网服务。

Basic Information
目录编号:
51777
目录名称:
STARLINK-3625
国际标识:
2022-017K
轨道中心:
EARTH
卫星名称:
星链-3625
卫星全名:
星链-3625 (STARLINK-3625 )
卫星状态:
在轨 (已飞行1652 天)
发射日期:
2022-02-25 UTC
国别 :
美国 (US)
星等 :
--
Orbit Information
数据来源 国际轨道数据 AOE轨道数据
星历时间 2026-09-03T18:00:09+0800
21小时前
查看轨道信息
2026-09-03T04:00:00+0800
1天前
查看轨道信息
半长轴 6837.873km 6837.879km
偏心率 0.0001208 0.0001434
轨道倾角 53.161° 53.160°
近地点辐角 81.276° 79.705°
升交点赤经 251.913° 254.647°
平近点角 278.838° 293.680°
近地点 458.909km 458.761km
远地点 460.563km 460.723km
周期 93.787分钟 93.787分钟
每日圈数 15.35399 15.353969
Detailed Information
固有亮度:
5
最大亮度:
2.5
卫星平台:
Starlink v1.5
覆盖范围:
全球
运营商:
太空探索技术公司
运营商所在国:
美国
制造商(研发单位):
太空探索技术公司
制造商所在国:
美国
使用方式:
暂无
Satellite Introduction
星链(Starlink)计划是由太空探索技术公司(SpaceX)提出的一个巨型低轨卫星互联网星座项目,计划在2019年至2024年间在太空搭建由约1.2万颗卫星组成的“星链”网络,其中1584颗将部署在地球上空550千米处的近地轨道,并从2020年开始工作。该卫星仍在工作。
2D Orbit Map
3D Orbit Map
Orbit Altitude Analysis Chart
Orbit Inclination Analysis Chart
Orbit Comprehensive Analysis Chart
View Comprehensive Chart